Regional Weather Roundup
Issued by NWS

Home | Current Version | Previous Version | Text Only | Print | Product List | Glossary Off
Versions: 1 2 3 4 5 6 7 8 9 10 11 12 13 14 15 16 17 18 19 20 21 22 23 24 25 26 27 28 29 30 31 32 33 34 35 36 37 38 39 40 41 42 43 44 45 46 47 48 49 50

000
ASUS45 KBOU 052007
RWRCO

WEATHER ROUNDUP FOR COLORADO
NATIONAL WEATHER SERVICE DENVER/BOULDER CO
200 PM MDT TUE MAY 05 2015

NOTE: "FAIR" INDICATES FEW OR NO CLOUDS BELOW 12000 FEET WITH NO
SIGNIFICANT WEATHER AND/OR OBSTRUCTIONS TO VISIBILITY.

COZ001>005-013-030-031-052100-
...NORTHWEST COLORADO...

CITY           SKY/WX    TMP DP  RH WIND       PRES   REMARKS
CRAIG          PTSUNNY   67  40  37 NE3       29.80F
HAYDEN         NOT AVBL
MEEKER         CLOUDY    64  39  39 W7        29.81F
MOUNT WERNER   NOT AVBL
STEAMBOAT SPGS PTSUNNY   64  37  38 SW5       29.81F
WALDEN         CLOUDY    55  32  41 SE5       29.89F
$$

COZ006>008-011-052100-
...WEST CENTRAL VALLEYS...

CITY           SKY/WX    TMP DP  RH WIND       PRES   REMARKS
GRAND JUNCTION CLOUDY    62  47  57 E10G17    29.80F
MONTROSE       LGT RAIN  55  47  74 W3        29.87F
EAGLE          CLOUDY    64  36  34 VRB7      29.80F
RIFLE          CLOUDY    62  44  51 W24G30    29.78F
DELTA          CLOUDY    62  49  63 CALM      29.83F
NUCLA          CLOUDY    54  46  76 NW3       29.91F
$$

COZ017>023-064>068-052100-
...SOUTHWEST COLORADO...

CITY           SKY/WX    TMP DP  RH WIND       PRES   REMARKS
DURANGO        CLOUDY    51  46  83 SW10      29.92F
CORTEZ         LGT RAIN  51  47  86 CALM      29.92S
PAGOSA SPRINGS LGT RAIN  46  42  88 W7        29.97S
TELLURIDE      RAIN      41  40  95 W5        29.99S
WOLF CREEK PAS NOT AVBL
$$

COZ009-010-012-014-032>034-037-058>063-052100-
...CENTRAL COLORADO...

CITY           SKY/WX    TMP DP  RH WIND       PRES   REMARKS
ASPEN          CLOUDY    57  39  51 N7        29.85F
BUENA VISTA    NOT AVBL
COPPER MTN     CLOUDY    41  32  70 NE7       30.07F
BERTHOUD PASS  HAZE      30  21  69 E12G23    30.12F VSB<1/4 WCI  21
COTTONWOOD PAS LGT RAIN  41  39  93 CALM      30.00S
GUNNISON       CLOUDY    46  39  76 W6        29.94S
KREMMLING      CLOUDY    64  34  32 W7        29.84F
LEADVILLE      LGT RAIN  43  34  70 CALM      29.96F
MONARCH PASS   CLOUDY    32  32 100 MISG      30.15S
SALIDA         CLOUDY    47  43  85 CALM      30.00S
SUNLIGHT       CLOUDY    43  36  75 CALM      30.04F
WILKERSON PASS MIX PCPN  34  32  93 E9G23     30.06F VSB 1/4 WCI  26
$$

COZ069>075-052100-
...SAN LUIS VALLEY/SANGRE DE CRISTO MOUNTAINS...

CITY           SKY/WX    TMP DP  RH WIND       PRES   REMARKS
ALAMOSA        CLOUDY    52  39  61 S14       29.90F
LA VETA PASS   CLOUDY    36  36 100 MISG      29.99F VSB 1/4
SAGUACHE       RAIN      45  41  87 S10       29.94F
$$

COZ035-036-038>040-052100-
...NORTHERN COLORADO FRONT RANGE...

CITY           SKY/WX    TMP DP  RH WIND       PRES   REMARKS
DENVER INTL AP RAIN      52  49  89 E17       29.90F FOG
DMNS CITY PARK   N/A     52  51  96 N1G10     29.90S
AURORA         NOT AVBL
FRONT RANGE AP RAIN      54  52  94 E12       29.92F
ERIE MUNI ARPT RAIN      53  51  95 N9        29.90F
BOULDER MUN AP RAIN      52  52 100 N7        29.90F
CENTENNIAL     LGT RAIN  52  49  89 E9        29.90F
BROOMFIELD     RAIN      54  50  87 N8        29.92F
FORT COLLINS   CLOUDY    52  48  87 N5        29.93F
LONGMONT       DRIZZLE   55  51  86 N7        29.93S
$$

COZ041-046-047-076>085-087-088-052100-
...PIKES PEAK/PALMER DIVIDE AND SOUTHERN FOOTHILLS...

CITY           SKY/WX    TMP DP  RH WIND       PRES   REMARKS
COLO. SPRINGS  LGT RAIN  49  47  93 E9        29.91F FOG
A. F. ACADEMY  LGT RAIN  48  48 100 E7        29.91F
ELLICOTT       LGT RAIN N/A N/A N/A E8        29.88F
FALCON         LGT RAIN  47  46  96 E10       29.93F
FORT CARSON    LGT RAIN  50  49  99 E8        29.88F
LIMON          LGT RAIN  52  49  89 E13       29.89F
MONUMENT HILL  RAIN      45  43  93 SE14      29.92F
TRINIDAD       LGT RAIN  54  47  77 E7        29.83F
$$

COZ042>045-048>051-090-091-052100-
...NORTHEAST COLORADO...

CITY           SKY/WX    TMP DP  RH WIND       PRES   REMARKS
GREELEY ARPT   CLOUDY    54  45  71 SE10      29.93F
AKRON          LGT RAIN  52  52 100 E12       29.92F
BURLINGTON     LGT RAIN  56  53  90 E24G36    29.85F FOG
WRAY           LGT RAIN N/A N/A N/A E12       29.92F
STERLING       RAIN      52  52 100 E8        29.93F
HOLYOKE        NOT AVBL
FORT MORGAN    DRIZZLE   52  50  93 E10       29.93F
$$

COZ086-089-092>099-052100-
...SOUTHEAST COLORADO...

CITY           SKY/WX    TMP DP  RH WIND       PRES   REMARKS
PUEBLO         HVY RAIN  53  52  96 E9        29.83F FOG
LA JUNTA       LGT RAIN  60  54  80 E12       29.80F
LAMAR          LGT RAIN  57  55  93 W10       29.77F FOG
SPRINGFIELD      N/A     58  54  86 S14       29.82F
$$


USA.gov is the U.S. government's official web portal to all federal, state and local government web resources and services.